Barnwell, SC

12:22 AM EST on January 20, 2018 (GMT -0500)
Barnwell County

Weather History for KBNL - October, 2012

Change the Weather History Date:

Saturday, October 27, 2012

  Actual Average (KOGB) Record (KOGB)
Temperature  
Mean Temperature 70 °F -  
Max Temperature 75 °F 74 °F 87 °F (2010)
Min Temperature 64 °F 48 °F 30 °F (1962)
Cooling Degree Days 4    
Growing Degree Days 20 (Base 50)    
Moisture  
Dew Point 59 °F    
Average Humidity 72    
Maximum Humidity 88    
Minimum Humidity 53    
Precipitation  
Precipitation 0.00 in - - ()
Sea Level Pressure  
Sea Level Pressure 29.73 in    
Wind  
Wind Speed 11 mph (North)    
Max Wind Speed 20 mph    
Max Gust Speed 30 mph    
Visibility 10 miles    
Events      
Averages and records for this station are not official NWS values.
T = Trace of Precipitation, MM = Missing Value Source: NWS Daily Summary

Daily Weather History Graph

Daily Weather History Graph

Search for Another Location

Airport or City:

Trip Planner

Search our weather history database for the weather conditions in past years. The results will help you decide how hot, cold, wet, or windy it might be!

Date:

Astronomy

Oct. 27, 2012 Rise Set
Actual Time 7:40 AM EDT 6:38 PM EDT
Civil Twilight 7:14 AM EDT 7:03 PM EDT
Nautical Twilight 6:45 AM EDT 7:32 PM EDT
Astronomical Twilight 6:16 AM EDT 8:01 PM EDT
Moon 5:20 PM EDT (10/27) 5:38 AM EDT (10/27)
Length of Visible Light 11h 48m
Length of Day
10h 58m
Waxing Gibbous, 96% of the Moon is Illuminated
Oct 27
Waxing Gibbous
Oct 29
Full
Nov 6
Last Quarter
Nov 13
New
Nov 20
First Quarter

Hourly Weather History & Observations

Time (EDT) Temp. Dew Point Humidity Pressure Visibility Wind Dir Wind Speed Gust Speed Precip Events Conditions
12:15 AM 66.2 °F 60.8 °F 83% 29.85 in 10.0 mi North 8.1 mph - N/A   Clear
12:35 AM 66.2 °F 60.8 °F 83% 29.85 in 10.0 mi North 8.1 mph - N/A   Clear
12:55 AM 66.2 °F 60.8 °F 83% 29.84 in 10.0 mi North 9.2 mph - N/A   Clear
1:15 AM 66.2 °F 60.8 °F 83% 29.83 in 10.0 mi North 8.1 mph - N/A   Clear
1:35 AM 66.2 °F 60.8 °F 83% 29.82 in 10.0 mi North 8.1 mph - N/A   Clear
1:55 AM 66.2 °F 60.8 °F 83% 29.80 in 10.0 mi North 9.2 mph - N/A   Clear
2:15 AM 64.4 °F 60.8 °F 88% 29.80 in 10.0 mi North 10.4 mph - N/A   Clear
2:35 AM 64.4 °F 60.8 °F 88% 29.79 in 10.0 mi North 11.5 mph - N/A   Partly Cloudy
3:15 AM 64.4 °F 60.8 °F 88% 29.78 in 10.0 mi North 11.5 mph 18.4 mph N/A   Mostly Cloudy
3:35 AM 64.4 °F 60.8 °F 88% 29.77 in 10.0 mi North 10.4 mph 17.3 mph N/A   Mostly Cloudy
3:55 AM 66.2 °F 60.8 °F 83% 29.76 in 10.0 mi North 13.8 mph 19.6 mph N/A   Overcast
4:15 AM 66.2 °F 60.8 °F 83% 29.76 in 10.0 mi North 12.7 mph 18.4 mph N/A   Overcast
4:35 AM 66.2 °F 60.8 °F 83% 29.75 in 10.0 mi North 11.5 mph 19.6 mph N/A   Overcast
4:55 AM 66.2 °F 60.8 °F 83% 29.75 in 10.0 mi North 15.0 mph - N/A   Mostly Cloudy
5:15 AM 66.2 °F 60.8 °F 83% 29.74 in 10.0 mi North 11.5 mph - N/A   Overcast
5:35 AM 66.2 °F 60.8 °F 83% 29.74 in 10.0 mi North 12.7 mph 16.1 mph N/A   Overcast
5:55 AM 66.2 °F 60.8 °F 83% 29.74 in 10.0 mi North 11.5 mph 17.3 mph N/A   Overcast
6:15 AM 66.2 °F 60.8 °F 83% 29.74 in 10.0 mi North 13.8 mph 20.7 mph N/A   Overcast
6:35 AM 66.2 °F 60.8 °F 83% 29.74 in 10.0 mi North 13.8 mph 19.6 mph N/A   Overcast
6:55 AM 66.2 °F 60.8 °F 83% 29.74 in 10.0 mi North 11.5 mph - N/A   Mostly Cloudy
7:15 AM 66.2 °F 60.8 °F 83% 29.74 in 10.0 mi North 11.5 mph 20.7 mph N/A   Mostly Cloudy
7:35 AM 66.2 °F 60.8 °F 83% 29.75 in 10.0 mi North 11.5 mph - N/A   Mostly Cloudy
7:55 AM 64.4 °F 60.8 °F 88% 29.75 in 10.0 mi North 11.5 mph - N/A   Mostly Cloudy
8:15 AM 66.2 °F 60.8 °F 83% 29.76 in 10.0 mi North 11.5 mph 18.4 mph N/A   Mostly Cloudy
8:35 AM 66.2 °F 60.8 °F 83% 29.76 in 10.0 mi North 15.0 mph 21.9 mph N/A   Overcast
8:55 AM 66.2 °F 60.8 °F 83% 29.76 in 10.0 mi North 15.0 mph 20.7 mph N/A   Mostly Cloudy
9:15 AM 66.2 °F 60.8 °F 83% 29.77 in 10.0 mi North 15.0 mph 21.9 mph N/A   Scattered Clouds
9:35 AM 66.2 °F 60.8 °F 83% 29.76 in 10.0 mi North 17.3 mph 21.9 mph N/A   Mostly Cloudy
10:15 AM 69.8 °F 60.8 °F 73% 29.76 in 10.0 mi North 15.0 mph 21.9 mph N/A   Mostly Cloudy
10:35 AM 69.8 °F 60.8 °F 73% 29.76 in 10.0 mi North 18.4 mph 24.2 mph N/A   Mostly Cloudy
10:55 AM 69.8 °F 60.8 °F 73% 29.76 in 10.0 mi North 15.0 mph 23.0 mph N/A   Mostly Cloudy
11:15 AM 69.8 °F 60.8 °F 73% 29.75 in 10.0 mi North 18.4 mph 28.8 mph N/A   Mostly Cloudy
11:35 AM 71.6 °F 60.8 °F 69% 29.75 in 10.0 mi North 17.3 mph 25.3 mph N/A   Mostly Cloudy
11:55 AM 71.6 °F 60.8 °F 69% 29.74 in 10.0 mi North 19.6 mph 24.2 mph N/A   Scattered Clouds
12:15 PM 71.6 °F 60.8 °F 69% 29.74 in 10.0 mi North 19.6 mph 29.9 mph N/A   Scattered Clouds
12:35 PM 71.6 °F 60.8 °F 69% 29.73 in 10.0 mi NNW 17.3 mph 25.3 mph N/A   Scattered Clouds
12:55 PM 73.4 °F 59.0 °F 61% 29.72 in 10.0 mi North 15.0 mph 21.9 mph N/A   Scattered Clouds
1:35 PM 73.4 °F 59.0 °F 61% 29.70 in 10.0 mi North 17.3 mph - N/A   Partly Cloudy
2:15 PM 73.4 °F 59.0 °F 61% 29.68 in 10.0 mi North 16.1 mph 25.3 mph N/A   Clear
2:35 PM 73.4 °F 57.2 °F 57% 29.68 in 10.0 mi North 15.0 mph 24.2 mph N/A   Partly Cloudy
2:55 PM 73.4 °F 59.0 °F 61% 29.67 in 10.0 mi North 16.1 mph 21.9 mph N/A   Partly Cloudy
3:15 PM 73.4 °F 57.2 °F 57% 29.66 in 10.0 mi North 13.8 mph 20.7 mph N/A   Partly Cloudy
3:55 PM 75.2 °F 57.2 °F 53% 29.66 in 10.0 mi North 11.5 mph - N/A   Partly Cloudy
4:15 PM 73.4 °F 57.2 °F 57% 29.65 in 10.0 mi North 13.8 mph 25.3 mph N/A   Scattered Clouds
4:35 PM 73.4 °F 57.2 °F 57% 29.65 in 10.0 mi North 13.8 mph 20.7 mph N/A   Partly Cloudy
4:55 PM 73.4 °F 57.2 °F 57% 29.65 in 10.0 mi North 10.4 mph 21.9 mph N/A   Clear
5:15 PM 73.4 °F 57.2 °F 57% 29.64 in 10.0 mi North 15.0 mph 21.9 mph N/A   Clear
5:35 PM 73.4 °F 57.2 °F 57% 29.65 in 10.0 mi North 8.1 mph - N/A   Clear
5:55 PM 73.4 °F 57.2 °F 57% 29.65 in 10.0 mi North 13.8 mph 18.4 mph N/A   Clear
6:15 PM 71.6 °F 57.2 °F 60% 29.65 in 10.0 mi North 9.2 mph - N/A   Clear
6:35 PM 71.6 °F 57.2 °F 60% 29.65 in 10.0 mi NNW 8.1 mph - N/A   Mostly Cloudy
6:55 PM 71.6 °F 57.2 °F 60% 29.66 in 10.0 mi North 6.9 mph - N/A   Mostly Cloudy
7:15 PM 71.6 °F 57.2 °F 60% 29.67 in 10.0 mi NNW 6.9 mph - N/A   Scattered Clouds
7:35 PM 69.8 °F 57.2 °F 64% 29.68 in 10.0 mi NNW 5.8 mph - N/A   Clear
7:55 PM 69.8 °F 57.2 °F 64% 29.68 in 10.0 mi NNW 4.6 mph - N/A   Partly Cloudy
8:15 PM 69.8 °F 57.2 °F 64% 29.68 in 10.0 mi North 5.8 mph - N/A   Scattered Clouds
8:35 PM 69.8 °F 55.4 °F 60% 29.68 in 10.0 mi NNW 5.8 mph - N/A   Scattered Clouds
9:15 PM 69.8 °F 55.4 °F 60% 29.68 in 10.0 mi North 8.1 mph - N/A   Clear
9:35 PM 68.0 °F 55.4 °F 64% 29.69 in 10.0 mi NNW 4.6 mph - N/A   Clear
9:55 PM 68.0 °F 55.4 °F 64% 29.69 in 10.0 mi NNW 6.9 mph - N/A   Clear
10:15 PM 66.2 °F 55.4 °F 68% 29.69 in 10.0 mi NNW 8.1 mph - N/A   Clear
10:35 PM 68.0 °F 55.4 °F 64% 29.69 in 10.0 mi North 9.2 mph - N/A   Clear
10:55 PM 68.0 °F 55.4 °F 64% 29.70 in 10.0 mi NNW 6.9 mph - N/A   Clear
11:15 PM 66.2 °F 53.6 °F 64% 29.70 in 10.0 mi North 10.4 mph 16.1 mph N/A   Clear
11:35 PM 68.0 °F 53.6 °F 60% 29.70 in 10.0 mi North 9.2 mph - N/A   Clear
11:55 PM 66.2 °F 51.8 °F 60% 29.70 in 10.0 mi North 8.1 mph - N/A   Clear